AMX856 MMMX-MMVR

Flight info

Callsign AMX856
Flight time 0h 37m
Altitude 29000
Route NOXOS3A NOXOS UT155 AVALI UT61 DURIB DURIB1A
Aircraft B738/M-SDE2E3FGHIRWXY/LB1

Departure

Time 2026-04-22 21:11
Airport Mexico City Benito Juárez International Airport (MMMX)

Arrival

Time 2026-04-22 21:48
Airport General Heriberto Jara International Airport (MMVR)
Time Latitude Longitude Altitude Speed Heading
2026-04-22 20:56 19.42161 -99.08206 7346 ft 0 kts 210°
2026-04-22 20:59 19.42168 -99.08202 7353 ft 2 kts 210°
2026-04-22 20:59 19.42179 -99.08191 7350 ft 2 kts 237°
2026-04-22 20:59 19.42186 -99.08176 7347 ft 2 kts 258°
2026-04-22 21:00 19.42187 -99.08160 7345 ft 2 kts 279°
2026-04-22 21:00 19.42183 -99.08147 7345 ft 1 kts 297°
2026-04-22 21:00 19.42179 -99.08141 7345 ft 1 kts 305°
2026-04-22 21:00 19.42178 -99.08140 7345 ft 0 kts 303°
2026-04-22 21:03 19.42182 -99.08145 7345 ft 3 kts 303°
2026-04-22 21:03 19.42196 -99.08169 7345 ft 4 kts 302°
2026-04-22 21:04 19.42211 -99.08192 7345 ft 3 kts 310°
2026-04-22 21:04 19.42242 -99.08205 7345 ft 6 kts 354°
2026-04-22 21:04 19.42287 -99.08205 7345 ft 5 kts
2026-04-22 21:04 19.42320 -99.08204 7345 ft 3 kts
2026-04-22 21:05 19.42352 -99.08202 7345 ft 5 kts
2026-04-22 21:05 19.42396 -99.08216 7345 ft 6 kts 334°
2026-04-22 21:05 19.42429 -99.08234 7346 ft 4 kts 331°
2026-04-22 21:05 19.42450 -99.08247 7346 ft 4 kts 332°
2026-04-22 21:06 19.42482 -99.08266 7346 ft 4 kts 330°
2026-04-22 21:06 19.42509 -99.08282 7346 ft 5 kts 330°
2026-04-22 21:06 19.42544 -99.08308 7346 ft 7 kts 316°
2026-04-22 21:06 19.42573 -99.08362 7346 ft 9 kts 293°
2026-04-22 21:07 19.42598 -99.08421 7345 ft 8 kts 294°
2026-04-22 21:07 19.42619 -99.08472 7345 ft 6 kts 294°
2026-04-22 21:07 19.42634 -99.08508 7345 ft 5 kts 293°
2026-04-22 21:07 19.42649 -99.08545 7344 ft 5 kts 293°
2026-04-22 21:08 19.42663 -99.08579 7344 ft 4 kts 298°
2026-04-22 21:08 19.42685 -99.08590 7344 ft 2 kts
2026-04-22 21:08 19.42705 -99.08580 7345 ft 4 kts 44°
2026-04-22 21:08 19.42715 -99.08564 7345 ft 0 kts 60°
2026-04-22 21:09 19.42721 -99.08553 7345 ft 9 kts 60°
2026-04-22 21:10 19.42868 -99.08292 7351 ft 73 kts 58°
2026-04-22 21:10 19.43238 -99.07636 7349 ft 133 kts 60°
2026-04-22 21:10 19.43810 -99.06613 7338 ft 186 kts 59°
2026-04-22 21:10 19.44536 -99.05320 7509 ft 217 kts 59°
2026-04-22 21:11 19.45346 -99.03856 7877 ft 242 kts 59°
2026-04-22 21:11 19.46225 -99.02258 8284 ft 265 kts 58°
2026-04-22 21:11 19.47211 -99.00534 8865 ft 281 kts 58°
2026-04-22 21:11 19.48258 -98.98743 9345 ft 295 kts 57°
2026-04-22 21:12 19.49372 -98.96909 10107 ft 294 kts 55°
2026-04-22 21:12 19.50490 -98.95139 11117 ft 286 kts 56°
2026-04-22 21:12 19.51569 -98.93378 11790 ft 292 kts 57°
2026-04-22 21:12 19.52638 -98.91546 12333 ft 302 kts 58°
2026-04-22 21:13 19.53541 -98.89628 13072 ft 305 kts 68°
2026-04-22 21:13 19.54183 -98.87508 13825 ft 308 kts 73°
2026-04-22 21:13 19.54724 -98.85304 14470 ft 314 kts 74°
2026-04-22 21:13 19.55258 -98.83070 15109 ft 320 kts 74°
2026-04-22 21:14 19.55832 -98.80763 15786 ft 324 kts 73°
2026-04-22 21:14 19.56419 -98.78468 16458 ft 328 kts 73°
2026-04-22 21:14 19.57026 -98.76133 17101 ft 333 kts 72°
2026-04-22 21:14 19.57646 -98.73766 17704 ft 338 kts 72°
2026-04-22 21:15 19.58225 -98.71311 18223 ft 347 kts 76°
2026-04-22 21:15 19.58699 -98.68776 18537 ft 363 kts 78°
2026-04-22 21:15 19.59139 -98.66073 18858 ft 377 kts 79°
2026-04-22 21:15 19.59435 -98.64210 19038 ft 387 kts 79°
2026-04-22 21:16 19.59832 -98.61746 19294 ft 399 kts 78°
2026-04-22 21:16 19.60319 -98.58810 19549 ft 414 kts 78°
2026-04-22 21:16 19.60838 -98.55756 19812 ft 428 kts 78°
2026-04-22 21:16 19.61291 -98.52602 20273 ft 436 kts 82°
2026-04-22 21:17 19.61522 -98.49392 20842 ft 441 kts 86°
2026-04-22 21:17 19.61571 -98.46151 21371 ft 446 kts 88°
2026-04-22 21:17 19.61521 -98.42838 21933 ft 450 kts 90°
2026-04-22 21:17 19.61426 -98.39552 22506 ft 453 kts 90°
2026-04-22 21:18 19.61316 -98.36179 22965 ft 459 kts 90°
2026-04-22 21:18 19.61202 -98.32815 23506 ft 462 kts 91°
2026-04-22 21:18 19.61088 -98.29366 24046 ft 466 kts 90°
2026-04-22 21:18 19.60979 -98.25940 24522 ft 470 kts 90°
2026-04-22 21:19 19.60872 -98.22495 24983 ft 474 kts 90°
2026-04-22 21:19 19.60801 -98.20109 25305 ft 477 kts 90°
2026-04-22 21:19 19.60697 -98.16595 25730 ft 482 kts 90°
2026-04-22 21:19 19.60594 -98.13036 26227 ft 484 kts 90°
2026-04-22 21:20 19.60492 -98.09493 26701 ft 487 kts 90°
2026-04-22 21:20 19.60426 -98.05870 27297 ft 486 kts 87°
2026-04-22 21:20 19.60604 -98.02341 27977 ft 481 kts 80°
2026-04-22 21:20 19.61235 -97.98878 28654 ft 474 kts 71°
2026-04-22 21:21 19.62296 -97.95635 29173 ft 471 kts 64°
2026-04-22 21:21 19.63662 -97.92442 29455 ft 473 kts 60°
2026-04-22 21:21 19.66686 -97.86314 29449 ft 469 kts 58°
2026-04-22 21:22 19.69778 -97.80209 29437 ft 469 kts 58°
2026-04-22 21:22 19.72772 -97.74113 29405 ft 470 kts 59°
2026-04-22 21:23 19.75717 -97.67954 29400 ft 470 kts 59°
2026-04-22 21:23 19.78635 -97.61772 29379 ft 472 kts 59°
2026-04-22 21:24 19.81568 -97.55521 29360 ft 471 kts 59°
2026-04-22 21:24 19.84481 -97.49300 29336 ft 471 kts 59°
2026-04-22 21:25 19.87375 -97.43110 29261 ft 473 kts 59°
2026-04-22 21:25 19.90289 -97.36866 29189 ft 472 kts 59°
2026-04-22 21:26 19.93211 -97.30599 29151 ft 475 kts 60°
2026-04-22 21:26 19.96134 -97.24327 29054 ft 475 kts 59°
2026-04-22 21:27 19.99031 -97.18100 29007 ft 473 kts 59°
2026-04-22 21:27 20.01968 -97.11785 28970 ft 474 kts 60°
2026-04-22 21:28 20.04872 -97.05528 28949 ft 473 kts 60°
2026-04-22 21:28 20.07750 -96.99320 28926 ft 473 kts 59°
2026-04-22 21:29 20.10634 -96.93008 28912 ft 475 kts 63°
2026-04-22 21:29 20.12322 -96.86204 28704 ft 478 kts 83°
2026-04-22 21:30 20.12273 -96.82684 28304 ft 475 kts 94°
2026-04-22 21:30 20.11744 -96.79289 27834 ft 472 kts 101°
2026-04-22 21:30 20.10817 -96.75941 27242 ft 471 kts 110°
2026-04-22 21:30 20.09339 -96.72860 26631 ft 470 kts 123°
2026-04-22 21:31 20.07331 -96.70107 25987 ft 468 kts 133°
2026-04-22 21:31 20.05067 -96.67725 25344 ft 466 kts 139°
2026-04-22 21:31 20.02497 -96.65597 24691 ft 463 kts 148°
2026-04-22 21:31 19.99760 -96.63843 24049 ft 460 kts 153°
2026-04-22 21:32 19.96939 -96.62281 23402 ft 457 kts 155°
2026-04-22 21:32 19.94092 -96.60811 22766 ft 455 kts 156°
2026-04-22 21:32 19.91232 -96.59379 22139 ft 452 kts 158°
2026-04-22 21:32 19.88310 -96.58151 21517 ft 449 kts 163°
2026-04-22 21:33 19.85379 -96.57149 20879 ft 446 kts 165°
2026-04-22 21:33 19.82371 -96.56235 20222 ft 444 kts 166°
2026-04-22 21:33 19.79405 -96.55380 19571 ft 442 kts 166°
2026-04-22 21:33 19.76468 -96.54543 19066 ft 435 kts 166°
2026-04-22 21:34 19.73553 -96.53709 18813 ft 424 kts 166°
2026-04-22 21:34 19.70758 -96.52902 18578 ft 410 kts 166°
2026-04-22 21:34 19.68069 -96.52119 18244 ft 396 kts 166°
2026-04-22 21:34 19.65425 -96.51341 17549 ft 392 kts 166°
2026-04-22 21:35 19.62784 -96.50558 16879 ft 388 kts 165°
2026-04-22 21:35 19.60203 -96.49786 16184 ft 385 kts 165°
2026-04-22 21:35 19.57640 -96.49017 15565 ft 380 kts 165°
2026-04-22 21:35 19.55136 -96.48264 14916 ft 376 kts 164°
2026-04-22 21:36 19.52636 -96.47511 14328 ft 370 kts 164°
2026-04-22 21:36 19.50143 -96.46761 13666 ft 368 kts 163°
2026-04-22 21:36 19.47703 -96.46027 13066 ft 364 kts 163°
2026-04-22 21:36 19.45264 -96.45293 12357 ft 362 kts 163°
2026-04-22 21:37 19.42860 -96.44569 11669 ft 358 kts 163°
2026-04-22 21:37 19.40496 -96.43858 11052 ft 355 kts 163°
2026-04-22 21:37 19.38147 -96.43153 10687 ft 343 kts 163°
2026-04-22 21:37 19.35879 -96.42471 10401 ft 329 kts 163°
2026-04-22 21:38 19.33711 -96.41820 10239 ft 313 kts 163°
2026-04-22 21:38 19.31668 -96.41206 10024 ft 301 kts 163°
2026-04-22 21:38 19.29652 -96.40601 9650 ft 298 kts 163°
2026-04-22 21:38 19.27686 -96.40010 9252 ft 295 kts 163°
2026-04-22 21:39 19.25709 -96.39417 8886 ft 290 kts 163°
2026-04-22 21:39 19.23784 -96.38839 8519 ft 285 kts 163°
2026-04-22 21:39 19.21888 -96.38270 8190 ft 280 kts 163°
2026-04-22 21:39 19.20015 -96.37708 7838 ft 275 kts 163°
2026-04-22 21:40 19.18189 -96.37161 7519 ft 273 kts 163°
2026-04-22 21:40 19.16383 -96.36620 7169 ft 269 kts 163°
2026-04-22 21:40 19.14578 -96.36079 6957 ft 270 kts 163°
2026-04-22 21:40 19.12736 -96.35527 6539 ft 277 kts 163°
2026-04-22 21:41 19.10926 -96.34985 6147 ft 278 kts 164°
2026-04-22 21:41 19.09257 -96.34486 5834 ft 277 kts 164°
2026-04-22 21:41 19.07385 -96.33926 5478 ft 277 kts 164°
2026-04-22 21:41 19.05535 -96.33373 5125 ft 275 kts 164°
2026-04-22 21:42 19.03694 -96.32822 4784 ft 274 kts 163°
2026-04-22 21:42 19.01859 -96.32273 4444 ft 273 kts 163°
2026-04-22 21:42 19.00072 -96.31683 4108 ft 265 kts 158°
2026-04-22 21:42 18.98530 -96.30748 3971 ft 247 kts 135°
2026-04-22 21:43 18.97652 -96.29279 3842 ft 231 kts 105°
2026-04-22 21:43 18.97368 -96.27653 3737 ft 217 kts 98°
2026-04-22 21:43 18.97116 -96.26126 3587 ft 206 kts 100°
2026-04-22 21:43 18.96962 -96.24631 3253 ft 205 kts 86°
2026-04-22 21:44 18.97427 -96.23238 2872 ft 207 kts 53°
2026-04-22 21:44 18.98519 -96.22271 2628 ft 201 kts 31°
2026-04-22 21:44 18.99787 -96.21732 2472 ft 192 kts 15°
2026-04-22 21:44 19.01059 -96.21489 2399 ft 185 kts 12°
2026-04-22 21:45 19.02337 -96.21252 2155 ft 183 kts 13°
2026-04-22 21:45 19.03584 -96.21004 1916 ft 181 kts 14°
2026-04-22 21:45 19.04819 -96.20755 1681 ft 176 kts 15°
2026-04-22 21:45 19.05983 -96.20519 1442 ft 166 kts 15°
2026-04-22 21:46 19.07088 -96.20292 1215 ft 157 kts 15°
2026-04-22 21:46 19.08125 -96.20083 1027 ft 146 kts 12°
2026-04-22 21:46 19.09128 -96.19909 806 ft 144 kts 15°
2026-04-22 21:46 19.10113 -96.19694 654 ft 148 kts 15°
2026-04-22 21:47 19.11114 -96.19468 459 ft 146 kts 15°
2026-04-22 21:47 19.12131 -96.19258 270 ft 148 kts 15°
2026-04-22 21:47 19.13142 -96.19034 110 ft 146 kts 13°
2026-04-22 21:47 19.14006 -96.18843 97 ft 99 kts 12°
2026-04-22 21:48 19.14507 -96.18749 91 ft 52 kts 11°
2026-04-22 21:48 19.14760 -96.18698 86 ft 30 kts 12°
2026-04-22 21:48 19.14903 -96.18669 85 ft 11 kts 11°
2026-04-22 21:48 19.14954 -96.18647 85 ft 5 kts 81°
2026-04-22 21:49 19.14954 -96.18616 85 ft 4 kts 91°
2026-04-22 21:49 19.14941 -96.18579 85 ft 4 kts 129°
2026-04-22 21:49 19.14907 -96.18567 85 ft 7 kts 173°
2026-04-22 21:49 19.14860 -96.18562 85 ft 6 kts 173°
2026-04-22 21:50 19.14822 -96.18556 85 ft 5 kts 173°
2026-04-22 21:50 19.14769 -96.18549 86 ft 10 kts 172°
2026-04-22 21:50 19.14704 -96.18540 87 ft 7 kts 174°
2026-04-22 21:50 19.14652 -96.18539 88 ft 7 kts 185°
2026-04-22 21:51 19.14585 -96.18552 88 ft 12 kts 185°
2026-04-22 21:51 19.14502 -96.18546 88 ft 10 kts 185°
2026-04-22 21:51 19.14434 -96.18558 90 ft 8 kts 190°
2026-04-22 21:52 19.14345 -96.18542 91 ft 5 kts 120°
2026-04-22 21:52 19.14333 -96.18510 91 ft 4 kts 129°
2026-04-22 21:52 19.14302 -96.18498 91 ft 4 kts 178°
2026-04-22 21:52 19.14273 -96.18501 91 ft 4 kts 190°
2026-04-22 21:53 19.14249 -96.18501 91 ft 3 kts 146°
2026-04-22 21:53 19.14237 -96.18481 90 ft 3 kts 102°
2026-04-22 21:53 19.14232 -96.18456 90 ft 1 kts 104°
2026-04-22 21:53 19.14229 -96.18442 90 ft 1 kts 104°
2026-04-22 21:54 19.14225 -96.18428 89 ft 1 kts 103°
2026-04-22 21:54 19.14225 -96.18426 89 ft 0 kts 103°